Regional Weather Roundup
Issued by NWS

Home | Current Version | Previous Version | Graphics & Text | Print | Product List | Glossary On
Versions: 1 2 3 4 5 6 7 8 9 10 11 12 13 14 15 16 17 18 19 20 21 22 23 24 25 26 27 28 29 30 31 32 33 34 35 36 37 38 39 40 41 42 43 44 45 46 47 48 49 50
000
ASUS43 KLOT 230606
RWRIL

ILLINOIS REGIONAL WEATHER ROUNDUP
NATIONAL WEATHER SERVICE CHICAGO/ROMEOVILLE IL
100 AM CDT TUE SEP 23 2014

NOTE: "FAIR" INDICATES FEW OR NO CLOUDS BELOW 12,000 FEET WITH NO
SIGNIFICANT WEATHER AND/OR OBSTRUCTIONS TO VISIBILITY.

* THESE STATIONS ARE NOT UNDER NWS QUALITY CONTROL. THEY ALSO MAY NOT
  REPORT WEATHER SUCH AS PRECIPITATION OR FOG.

ILZ001-002-007-009-015-016-024-230700-
NORTHWEST ILLINOIS

CITY           SKY/WX    TMP DP  RH WIND       PRES   REMARKS
MOLINE         CLEAR     48  45  89 CALM      30.26S
6HR MIN TEMP:  47; 6HR MAX TEMP:  60;

STERLING*      CLEAR     45  39  81 CALM      30.26S
SAVANNA*       CLEAR     48  46  93 CALM      30.26R
$$

ILZ003-004-008-010-011-017-018-230700-
NORTH CENTRAL ILLINOIS

CITY           SKY/WX    TMP DP  RH WIND       PRES   REMARKS
ROCKFORD       CLEAR     49  45  86 S5        30.28S
6HR MIN TEMP:  48; 6HR MAX TEMP:  63;

FREEPORT*      CLEAR     50  43  77 CALM      30.27S
ROCHELLE*      CLEAR     44  42  93 CALM      30.27S
DE KALB*       CLEAR     49  42  78 CALM      30.27S
PERU*          CLEAR     51  47  85 CALM      30.27S
$$

ILZ005-006-012>014-019>023-230700-
NORTHEAST ILLINOIS

CITY           SKY/WX    TMP DP  RH WIND       PRES   REMARKS
CHICAGO-OHARE  CLEAR     54  45  71 S3        30.27S
6HR MIN TEMP:  54; 6HR MAX TEMP:  65;

CHICAGO-MIDWAY CLEAR     55  44  66 S6        30.28S
6HR MIN TEMP:  55; 6HR MAX TEMP:  62;

AURORA         CLEAR     45  41  86 CALM      30.28R
6HR MIN TEMP:  45; 6HR MAX TEMP:  61;

LANSING*       CLEAR     46  44  92 CALM      30.29S
JOLIET*        CLEAR     47  45  94 CALM      30.29S
WAUKEGAN       CLEAR     52  46  80 VRB3      30.25S
6HR MIN TEMP:  50; 6HR MAX TEMP:  54;

DUPAGE AIRPORT CLEAR     50  46  86 SE3       30.27S
6HR MIN TEMP:  49; 6HR MAX TEMP:  61;

KANKAKEE*      CLEAR     46  45  96 CALM      30.30R FOG
WHEELING       CLEAR     51  45  79 S3        30.29R
6HR MIN TEMP:  51; 6HR MAX TEMP:  65;

MORRIS*        CLEAR     50  49  97 SE3       30.28R
ROMEOVILLE*    CLEAR     46  44  93 S6        30.28S
NORTHERLY ISL    N/A     57  43  59 S6          N/A
$$

LMZ740>746-230700-
SOUTHERN LAKE MICHIGAN

STATION/POSITION SKY/WX   TEMP    WIND        PRES    VSBY  WAVE
                          AIR SEA DIR/SP/G                  HT/PER
                          (F)     (DEG/KT/KT) (MB)    (MI)  (FT/S)
SOUTHERN BUOY              61 62  210/ 14/ 16 1024.7R         2/ 4
WAUKEGAN HARBOR            56     240/  8/ 10   N/A
BURNHAM HARBOR             56     210/  6/  7   N/A
CALUMET HARBOR             55     200/  5/  7 1023.9R
MICHIGAN CITY 6N           56 63  180/ 10/ 12   N/A           1/ 2
ST. JOSEPH                 58 65  150/ 10/ 14   N/A           1/ 2
$$

ILZ025>027-034>036-040-047-049-050-058-095>099-230700-
WEST-CENTRAL ILLINOIS

CITY           SKY/WX    TMP DP  RH WIND       PRES   REMARKS
QUINCY         PTCLDY    53  45  74 SE5       30.25S
GALESBURG*     CLEAR    N/A N/A N/A CALM      30.26S
MACOMB*        CLEAR     45  45  99 CALM      30.28S
JACKSONVILLE*  CLEAR     50  46  86 CALM      30.27S
PITTSFIELD*    CLEAR     49  47  90 CALM      30.27S
$$

ILZ028>032-037-038-041>044-048-051>054-059>061-230700-
CENTRAL ILLINOIS

CITY           SKY/WX    TMP DP  RH WIND       PRES   REMARKS
PONTIAC        CLEAR     46  46 100 CALM      30.28S
BLOOMINGTON    CLEAR     49  44  83 E8        30.29S
DECATUR        CLEAR     49  44  83 CALM      30.28S
PEORIA         CLEAR     51  48  89 CALM      30.27S
6HR MIN TEMP:  51; 6HR MAX TEMP:  63;

LACON*         CLEAR     45  43  93 CALM      30.26F
LINCOLN*       CLEAR     49  45  88 CALM      30.27R
SPRINGFIELD    CLEAR     48  45  89 CALM      30.28R
6HR MIN TEMP:  47; 6HR MAX TEMP:  63;

TAYLORVILLE    CLEAR     45  45 100 CALM      30.27S
$$

ILZ033-039-045-046-055>057-062-063-230700-
EAST-CENTRAL ILLINOIS

CITY           SKY/WX    TMP DP  RH WIND       PRES   REMARKS
CHAMPAIGN      CLEAR     49  44  83 E8        30.29R
DANVILLE*      CLEAR     49  45  85 E5        30.27R
RANTOUL*       CLEAR     51  44  76 SE3       30.30S
MATTOON        CLEAR     47  44  90 CALM      30.27S
PARIS*         CLEAR     44  44  99 CALM      30.30S
$$

ILZ079-100>102-230700-
SOUTHWEST ILLINOIS

CITY           SKY/WX    TMP DP  RH WIND       PRES   REMARKS
ALTON          CLEAR     48  47  94 CALM      30.26F
BELLEVILLE     CLEAR     50  50 100 CALM      30.26R
CAHOKIA*       CLEAR     49  47  93 CALM      30.26S
SPARTA*        CLEAR     49  47  92 CALM      30.27F
$$

ILZ064>066-069>071-074>076-080>082-084>086-088>090-092>094-230700-
SOUTH-CENTRAL ILLINOIS

CITY           SKY/WX    TMP DP  RH WIND       PRES   REMARKS
CARBONDALE     CLEAR     45  44  97 CALM      30.26S FOG
6HR MIN TEMP:  45; 6HR MAX TEMP:  63;

CAIRO*         CLEAR     49  46  88 CALM      30.25S
EFFINGHAM*     CLEAR     47  45  91 CALM      30.28S
MARION         CLEAR     50  48  93 CALM      30.27R
MT. VERNON     CLEAR     45  41  87 CALM      30.28R
CENTRALIA*     CLEAR     46  44  93 CALM      30.27S
SALEM*         CLEAR     48  48  98 CALM      30.27S
METROPOLIS*    CLEAR     46  46 100 CALM      30.24S
$$

ILZ067-068-072-073-078-083-087-091-230700-
SOUTHEAST ILLINOIS

CITY           SKY/WX    TMP DP  RH WIND       PRES   REMARKS
LAWRENCEVILLE  CLEAR     48  46  93 CALM      30.29R
FAIRFIELD*     CLEAR    N/A N/A N/A CALM      30.27R
HARRISBURG*    CLEAR     47  47 100 CALM      30.28R
ROBINSON*      CLEAR     46  46  99 CALM      30.29S FOG
CARMI*         CLEAR     47  47 100 CALM      30.27R
$$

ABBREVIATIONS USED IN REMARKS
   TC - TEMPERATURE IN CELSIUS
  WCI - WIND CHILL INDEX
   HX - HEAT INDEX
  VSB - VISIBILITY
$$



USA.gov is the U.S. government's official web portal to all federal, state and local government web resources and services.